Time,TemperatureF,DewpointF,PressureIn,WindDirection,WindDirectionDegrees,WindSpeedMPH,WindSpeedGustMPH,Humidity,HourlyPrecipIn,Conditions,Clouds,dailyrainin,SoftwareType,DateUTC
2013-09-24 00:00:00,46.0,42.0,30.03,NW,309,0.0,5.0,87,0.00,,,-99.99,,2013-09-24 04:00:00,
2013-09-24 00:44:00,46.0,42.0,30.03,NW,309,0.0,5.0,87,0.00,,,-99.99,,2013-09-24 04:44:00,
2013-09-24 00:54:00,46.0,42.0,30.03,NW,309,0.0,5.0,87,0.00,,,-99.99,,2013-09-24 04:54:00,
2013-09-24 01:00:00,44.0,42.0,30.02,WNW,303,0.0,2.0,92,0.00,,,-99.99,,2013-09-24 05:00:00,
2013-09-24 01:43:00,44.0,42.0,30.02,WNW,303,0.0,2.0,92,0.00,,,-99.99,,2013-09-24 05:43:00,
2013-09-24 01:53:00,44.0,42.0,30.02,WNW,303,0.0,2.0,92,0.00,,,-99.99,,2013-09-24 05:53:00,
2013-09-24 02:00:00,42.0,40.0,30.03,NW,320,0.0,0.0,91,0.00,,,-99.99,,2013-09-24 06:00:00,
2013-09-24 02:42:00,42.0,40.0,30.03,NW,320,0.0,0.0,91,0.00,,,-99.99,,2013-09-24 06:42:00,
2013-09-24 02:52:00,42.0,40.0,30.03,NW,320,0.0,0.0,91,0.00,,,-99.99,,2013-09-24 06:52:00,
2013-09-24 03:00:00,42.0,40.0,30.03,NW,324,0.0,2.0,93,0.00,,,-99.99,,2013-09-24 07:00:00,
2013-09-24 03:43:00,42.0,40.0,30.03,NW,324,0.0,2.0,93,0.00,,,-99.99,,2013-09-24 07:43:00,
2013-09-24 03:52:00,42.0,40.0,30.03,NW,324,0.0,2.0,93,0.00,,,-99.99,,2013-09-24 07:52:00,
2013-09-24 04:00:00,42.0,40.0,30.03,NW,326,0.0,3.0,94,0.00,,,-99.99,,2013-09-24 08:00:00,
2013-09-24 04:42:00,42.0,40.0,30.03,NW,326,0.0,3.0,94,0.00,,,-99.99,,2013-09-24 08:42:00,
2013-09-24 04:52:00,42.0,40.0,30.03,NW,326,0.0,3.0,94,0.00,,,-99.99,,2013-09-24 08:52:00,
2013-09-24 05:00:00,42.0,40.0,30.03,NW,321,1.0,4.0,93,0.00,,,-99.99,,2013-09-24 09:00:00,
2013-09-24 05:43:00,42.0,40.0,30.03,NW,321,1.0,4.0,93,0.00,,,-99.99,,2013-09-24 09:43:00,
2013-09-24 05:54:00,42.0,40.0,30.03,NW,321,1.0,4.0,93,0.00,,,-99.99,,2013-09-24 09:54:00,
2013-09-24 06:00:00,42.0,40.0,30.03,NNW,344,0.0,6.0,92,0.00,,,-99.99,,2013-09-24 10:00:00,
2013-09-24 06:42:00,42.0,40.0,30.03,NNW,344,0.0,6.0,92,0.00,,,-99.99,,2013-09-24 10:42:00,
2013-09-24 06:53:00,42.0,40.0,30.03,NNW,344,0.0,6.0,92,0.00,,,-99.99,,2013-09-24 10:53:00,
2013-09-24 07:00:00,42.0,39.0,30.04,NNW,331,0.0,3.0,92,0.00,,,-99.99,,2013-09-24 11:00:00,
2013-09-24 07:42:00,42.0,39.0,30.04,NNW,331,0.0,3.0,92,0.00,,,-99.99,,2013-09-24 11:42:00,
2013-09-24 07:52:00,42.0,39.0,30.04,NNW,331,0.0,3.0,92,0.00,,,-99.99,,2013-09-24 11:52:00,
2013-09-24 08:00:00,47.0,43.0,30.05,NNW,344,5.0,6.0,86,0.00,,,-99.99,,2013-09-24 12:00:00,
2013-09-24 08:42:00,47.0,43.0,30.05,NNW,344,5.0,6.0,86,0.00,,,-99.99,,2013-09-24 12:42:00,
2013-09-24 08:52:00,47.0,43.0,30.05,NNW,344,5.0,6.0,86,0.00,,,-99.99,,2013-09-24 12:52:00,
2013-09-24 09:00:00,51.0,43.0,30.04,NNE,12,5.0,9.0,73,0.00,,,-99.99,,2013-09-24 13:00:00,
2013-09-24 09:42:00,51.0,43.0,30.04,NNE,12,5.0,9.0,73,0.00,,,-99.99,,2013-09-24 13:42:00,
2013-09-24 09:52:00,51.0,43.0,30.04,NNE,12,5.0,9.0,73,0.00,,,-99.99,,2013-09-24 13:52:00,
2013-09-24 10:00:00,58.0,44.0,30.03,West,270,1.0,9.0,60,0.00,,,-99.99,,2013-09-24 14:00:00,
2013-09-24 10:42:00,58.0,44.0,30.03,West,270,1.0,9.0,60,0.00,,,-99.99,,2013-09-24 14:42:00,
2013-09-24 10:52:00,58.0,44.0,30.03,West,270,1.0,9.0,60,0.00,,,-99.99,,2013-09-24 14:52:00,
2013-09-24 11:00:00,59.0,43.0,30.00,WNW,299,4.0,12.0,55,0.00,,,-99.99,,2013-09-24 15:00:00,
2013-09-24 11:43:00,59.0,43.0,30.00,WNW,299,4.0,12.0,55,0.00,,,-99.99,,2013-09-24 15:43:00,
2013-09-24 11:54:00,59.0,43.0,30.00,WNW,299,4.0,12.0,55,0.00,,,-99.99,,2013-09-24 15:54:00,
2013-09-24 12:00:00,63.0,43.0,29.98,NNW,347,6.0,12.0,48,0.00,,,-99.99,,2013-09-24 16:00:00,
2013-09-24 12:43:00,63.0,43.0,29.98,NNW,347,6.0,12.0,48,0.00,,,-99.99,,2013-09-24 16:43:00,
2013-09-24 12:53:00,63.0,43.0,29.98,NNW,347,6.0,12.0,48,0.00,,,-99.99,,2013-09-24 16:53:00,
2013-09-24 13:00:00,65.0,44.0,29.95,NW,305,9.0,12.0,45,0.00,,,-99.99,,2013-09-24 17:00:00,
2013-09-24 13:43:00,65.0,44.0,29.95,NW,305,9.0,12.0,45,0.00,,,-99.99,,2013-09-24 17:43:00,
2013-09-24 13:54:00,65.0,44.0,29.95,NW,305,9.0,12.0,45,0.00,,,-99.99,,2013-09-24 17:54:00,
2013-09-24 14:00:00,67.0,42.0,29.93,WNW,284,6.0,13.0,41,0.00,,,-99.99,,2013-09-24 18:00:00,
2013-09-24 14:42:00,67.0,42.0,29.93,WNW,284,6.0,13.0,41,0.00,,,-99.99,,2013-09-24 18:42:00,
2013-09-24 14:53:00,67.0,42.0,29.93,WNW,284,6.0,13.0,41,0.00,,,-99.99,,2013-09-24 18:53:00,
2013-09-24 15:00:00,69.0,42.0,29.91,NNW,328,5.0,14.0,38,0.00,,,-99.99,,2013-09-24 19:00:00,
2013-09-24 15:42:00,69.0,42.0,29.91,NNW,328,5.0,14.0,38,0.00,,,-99.99,,2013-09-24 19:42:00,
2013-09-24 15:52:00,69.0,42.0,29.91,NNW,328,5.0,14.0,38,0.00,,,-99.99,,2013-09-24 19:52:00,
2013-09-24 16:00:00,71.0,45.0,29.89,North,354,2.0,12.0,40,0.00,,,-99.99,,2013-09-24 20:00:00,
2013-09-24 16:42:00,71.0,45.0,29.89,North,354,2.0,12.0,40,0.00,,,-99.99,,2013-09-24 20:42:00,
2013-09-24 16:52:00,71.0,45.0,29.89,North,354,2.0,12.0,40,0.00,,,-99.99,,2013-09-24 20:52:00,
2013-09-24 17:00:00,70.0,44.0,29.88,North,9,0.0,11.0,39,0.00,,,-99.99,,2013-09-24 21:00:00,
2013-09-24 17:44:00,70.0,44.0,29.88,North,9,0.0,11.0,39,0.00,,,-99.99,,2013-09-24 21:44:00,
2013-09-24 17:54:00,70.0,44.0,29.88,North,9,0.0,11.0,39,0.00,,,-99.99,,2013-09-24 21:54:00,
2013-09-24 18:00:00,69.0,47.0,29.88,NW,314,2.0,10.0,44,0.00,,,-99.99,,2013-09-24 22:00:00,
2013-09-24 18:43:00,69.0,47.0,29.88,NW,314,2.0,10.0,44,0.00,,,-99.99,,2013-09-24 22:43:00,
2013-09-24 18:54:00,69.0,47.0,29.88,NW,314,2.0,10.0,44,0.00,,,-99.99,,2013-09-24 22:54:00,
2013-09-24 19:00:00,58.0,50.0,29.89,SW,222,0.0,6.0,73,0.00,,,-99.99,,2013-09-24 23:00:00,
2013-09-24 19:53:00,58.0,50.0,29.89,SW,222,0.0,6.0,73,0.00,,,-99.99,,2013-09-24 23:53:00,
2013-09-24 20:00:00,53.0,48.0,29.89,SE,140,0.0,1.0,85,0.00,,,-99.99,,2013-09-25 00:00:00,
2013-09-24 20:42:00,53.0,48.0,29.89,SE,140,0.0,1.0,85,0.00,,,-99.99,,2013-09-25 00:42:00,
2013-09-24 20:52:00,53.0,48.0,29.89,SE,140,0.0,1.0,85,0.00,,,-99.99,,2013-09-25 00:52:00,
2013-09-24 21:00:00,50.0,47.0,29.90,SSE,154,0.0,0.0,89,0.00,,,-99.99,,2013-09-25 01:00:00,
2013-09-24 21:42:00,50.0,47.0,29.90,SSE,154,0.0,0.0,89,0.00,,,-99.99,,2013-09-25 01:42:00,
2013-09-24 21:52:00,50.0,47.0,29.90,SSE,154,0.0,0.0,89,0.00,,,-99.99,,2013-09-25 01:52:00,
2013-09-24 22:00:00,48.0,46.0,29.90,South,176,0.0,0.0,92,0.00,,,-99.99,,2013-09-25 02:00:00,
2013-09-24 22:42:00,48.0,46.0,29.90,South,176,0.0,0.0,92,0.00,,,-99.99,,2013-09-25 02:42:00,
2013-09-24 22:52:00,48.0,46.0,29.90,South,176,0.0,0.0,92,0.00,,,-99.99,,2013-09-25 02:52:00,
2013-09-24 23:00:00,47.0,45.0,29.91,NW,304,0.0,2.0,93,0.00,,,-99.99,,2013-09-25 03:00:00,
2013-09-24 23:45:00,47.0,45.0,29.91,NW,304,0.0,2.0,93,0.00,,,-99.99,,2013-09-25 03:45:00,
2013-09-24 23:55:00,47.0,45.0,29.91,NW,304,0.0,2.0,93,0.00,,,-99.99,,2013-09-25 03:55:00,